Vertical_Velocity
-1 0 3 -1 -3 1 -2 -6 0 -2 -1 -6 -0 -0 1 -2 1 -1 1 2 0 0 0 0 0 1 1 -1 -0 1 1 1 0 -5 2 1 0 -2 -1 4 2 -1 3 -9
-3 -0 -0 5 -2 -6 -4 -1 -1 -2 -4 -3 0 0 1 0 1 -0 1 0 1 0 0 3 0 0 0 -1 0 2 2 -1 -0 6 6 3 2 -2 -0 1 1 -4 5 0
-1 -1 -0 2 4 -5 -5 -2 0 -4 -4 -4 -5 -1 0 2 -1 1 -0 1 1 1 1 1 1 -0 1 -1 -0 -3 0 0 3 3 7 3 3 0 0 2 3 -3 -7 -5
-2 -1 -1 -2 4 2 -3 -5 1 -1 -1 0 0 1 -0 0 1 0 -1 2 1 0 1 0 -0 0 1 2 0 -0 2 1 2 -3 -1 3 0 0 -1 3 -9 8 -5 1
1 -3 -1 -0 -4 6 -5 3 1 -4 -1 -2 1 0 -2 -1 1 2 0 3 -0 1 2 3 1 2 1 -1 5 1 0 -3 2 -5 -1 1 1 -1 0 -0 -2 3 3 -10
5 0 -2 -3 1 2 4 -4 -2 -6 -2 0 3 -0 -1 -2 0 0 0 0 2 2 -2 0 -1 -0 -0 2 1 -0 2 1 0 -4 0 -1 1 -6 -3 -2 0 -3 2 -14
0 3 2 -4 -2 5 4 3 -3 -1 1 3 -1 0 0 -0 -2 2 0 -0 3 2 -4 -4 0 2 1 4 -3 2 1 2 1 -2 1 2 -1 0 1 -3 -3 -0 1 -2
-1 0 4 -2 -7 -0 3 1 0 0 -0 -2 0 1 -0 -0 -0 0 0 -2 -0 -4 -1 2 -0 5 5 0 -1 1 3 2 -1 3 1 -12 -6 2 0 -1 -8 -2 -2 -2
-1 1 1 2 -2 -2 1 3 3 -2 3 -1 -2 -1 0 -0 -1 3 -2 -1 -2 -1 2 2 1 -1 2 2 5 -0 2 3 9 0 3 0 5 1 -1 1 0 1 2 -1
0 0 -3 8 2 -1 -4 -1 0 2 2 -1 -2 -1 -2 -2 -0 2 -1 1 3 0 0 1 1 -1 0 2 1 1 2 2 -1 -1 -0 -10 0 0 -1 7 8 0 -0 0
0 4 -2 1 1 3 0 -2 2 0 1 -3 -1 0 -3 -0 -3 2 4 5 3 4 4 3 -2 2 0 2 -2 -3 -3 -1 -2 3 4 -6 -2 3 5 2 -0 -2 -1 -1
-1 -1 5 1 3 2 2 -3 0 1 -1 -2 -1 -0 1 -7 -3 -2 -1 5 -0 1 3 1 1 1 2 -1 -1 1 2 -8 0 -4 -10 2 -2 -1 2 0 -0 -1 3 -1
-1 -1 -1 1 -0 3 7 3 -2 1 2 -5 2 -4 3 3 -2 2 2 1 2 -2 -0 1 -0 2 2 0 -4 2 1 -0 1 5 -7 -4 -2 -4 -5 -0 1 3 2 2
1 2 -0 -1 3 -1 -1 2 6 5 0 3 -1 -2 -3 -1 1 1 5 2 2 -4 -1 2 0 2 1 -1 -1 3 -3 3 -3 -8 -6 -2 -10 -5 -1 -2 -3 -2 -1 -2
0 6 3 2 2 3 -1 0 -3 5 7 2 -2 -3 -9 -0 3 2 1 2 1 0 1 2 -2 -0 3 -2 5 -0 -6 -10 -1 -10 -6 1 -3 -3 -3 -1 -2 0 0 -3
0 3 6 3 5 6 2 0 -8 6 3 4 1 2 6 -1 -5 0 4 3 -0 -0 1 -4 -3 -1 4 3 0 -10 -1 -2 -3 -17 1 1 2 1 -2 -1 1 2 2 -2
-1 -1 3 10 9 1 -11 -7 -4 -2 10 2 -2 1 -0 8 -1 -5 -1 4 3 -0 -2 1 1 0 -1 2 0 -7 1 -3 2 -0 11 4 0 -7 -2 -1 -3 -3 -1 3
8 8 5 4 21 34 20 -6 2 -2 -6 2 1 -2 1 0 2 2 -1 2 2 3 -2 2 0 5 2 1 -9 -5 -8 3 5 -0 -1 -4 4 3 -1 -2 -2 -1 -2 -0
-12 20 26 25 12 9 -14 6 16 2 -1 0 2 -0 -1 -1 3 2 2 0 3 1 1 -1 6 -0 -4 -18 -3 -5 -4 -3 -3 -2 4 3 -1 -0 -0 -2 -2 -2 0 -0
-6 12 3 -1 -1 -9 -1 10 0 10 -0 1 1 2 0 -4 1 2 2 0 -1 1 -9 0 4 -7 -20 -11 4 -2 -3 -2 2 2 -1 -1 -3 -1 -0 -2 -2 -1 1 1
21 5 7 -1 6 10 7 2 2 2 3 2 -3 -10 -3 -3 -2 -2 -3 -1 -1 3 -2 3 -1 -3 -15 9 -4 3 13 7 4 3 9 3 4 -0 -2 -1 -2 -3 -2 -1
7 -4 -1 4 3 5 3 -1 3 3 -5 3 -1 -6 -0 -1 0 0 2 -0 3 -1 -1 5 -0 -14 -5 2 -3 -2 2 1 -0 -2 -0 2 -1 -1 2 2 1 -1 -0 1
18 15 -3 4 -0 7 3 -0 3 3 -1 0 1 1 -4 1 2 1 1 5 -4 -1 4 -4 -8 -7 -2 -2 -1 -1 1 0 3 6 3 1 4 -2 3 3 -2 -1 -1 1
-0 1 4 -1 2 -1 -4 -2 -3 -5 0 1 -1 -0 -4 0 3 -1 4 -4 2 2 3 -8 -5 -4 -1 0 0 -1 0 1 0 -1 -0 -2 -5 1 -1 -5 -3 -0 1 0
2 5 -2 0 -10 4 2 -0 -1 2 3 -5 2 1 -1 1 2 0 1 5 -1 -2 -6 -4 -3 -0 -0 -0 -0 1 -3 -1 -3 -4 -3 2 3 -4 -5 -1 -3 -2 0 2
-2 4 4 -1 2 -1 -0 0 2 1 4 4 -2 -0 3 -0 -1 3 -3 2 -5 -7 -2 -7 0 2 -2 -3 -1 -0 2 -2 -0 -2 0 1 -3 -3 -4 -4 -3 0 -3 -3
5 -2 -1 1 1 -2 1 -5 -4 -1 2 -1 0 4 -11 -1 2 1 -1 -6 -6 -5 -6 -3 4 -5 -1 2 -3 -2 5 2 -1 0 -1 -2 1 -2 1 -1 4 1 0 1
Height
1524 1522 1520 1517 1514 1511 1511 1510 1510 1506 1505 1508 1510 1510 1512 1517 1519 1518 1516 1516 1512 1510 1512 1509 1509 1509 1510 1513 1513 1511 1512 1511 1508 1498 1496 1499 1500 1502 1505 1507 1499 1498 1492 1473
1525 1522 1519 1518 1515 1513 1512 1514 1513 1509 1507 1509 1512 1517 1516 1517 1516 1516 1515 1512 1513 1512 1511 1510 1509 1508 1511 1512 1513 1511 1512 1511 1506 1495 1500 1501 1501 1495 1498 1497 1501 1496 1492 1461
1525 1522 1519 1518 1516 1514 1514 1516 1515 1513 1510 1511 1509 1513 1516 1515 1515 1514 1514 1513 1513 1511 1509 1509 1506 1507 1510 1512 1513 1514 1515 1510 1505 1496 1489 1493 1492 1491 1493 1494 1501 1482 1468 1455
1525 1522 1520 1517 1516 1514 1513 1514 1518 1519 1516 1514 1513 1512 1512 1515 1514 1515 1513 1512 1512 1510 1508 1508 1506 1507 1508 1511 1512 1513 1513 1508 1504 1496 1491 1488 1486 1486 1484 1489 1487 1480 1454 1458
1524 1521 1519 1517 1516 1515 1514 1515 1516 1519 1519 1519 1517 1515 1510 1508 1511 1514 1512 1512 1510 1512 1510 1507 1505 1508 1507 1503 1510 1509 1509 1506 1499 1491 1477 1482 1480 1474 1474 1474 1472 1471 1466 1457
1522 1520 1518 1516 1515 1514 1512 1512 1514 1516 1520 1519 1516 1509 1509 1511 1512 1511 1512 1511 1511 1510 1509 1510 1510 1510 1508 1507 1506 1504 1505 1503 1499 1488 1478 1478 1466 1449 1453 1459 1458 1459 1458 1448
1521 1518 1515 1514 1515 1515 1514 1511 1512 1514 1512 1517 1514 1513 1513 1512 1512 1512 1511 1512 1512 1511 1510 1509 1506 1504 1504 1504 1504 1506 1500 1501 1500 1491 1481 1476 1446 1452 1451 1447 1448 1449 1448 1446
1518 1517 1515 1512 1513 1515 1515 1512 1512 1512 1508 1511 1512 1514 1512 1511 1511 1511 1510 1509 1509 1509 1510 1502 1494 1491 1497 1495 1500 1502 1506 1500 1495 1490 1477 1455 1441 1449 1451 1450 1442 1439 1441 1442
1516 1514 1514 1512 1512 1513 1514 1514 1512 1512 1511 1504 1507 1510 1513 1510 1506 1507 1506 1506 1506 1508 1506 1502 1496 1487 1485 1485 1496 1504 1503 1504 1500 1487 1488 1466 1448 1450 1452 1451 1445 1441 1440 1439
1512 1511 1511 1511 1509 1510 1512 1512 1513 1512 1510 1504 1503 1503 1505 1510 1509 1505 1504 1503 1505 1506 1500 1499 1495 1488 1493 1489 1486 1492 1495 1497 1495 1489 1485 1458 1445 1450 1452 1450 1444 1443 1443 1442
1509 1508 1507 1508 1508 1508 1509 1510 1510 1510 1508 1503 1501 1500 1499 1502 1506 1503 1506 1505 1500 1502 1500 1494 1488 1489 1484 1489 1478 1480 1478 1479 1481 1480 1478 1471 1447 1451 1449 1439 1440 1442 1442 1442
1505 1504 1503 1503 1504 1504 1504 1506 1507 1507 1506 1501 1498 1497 1497 1496 1499 1500 1502 1501 1499 1494 1491 1490 1487 1487 1485 1480 1473 1477 1476 1464 1457 1459 1448 1441 1443 1439 1438 1437 1438 1438 1438 1438
1499 1499 1499 1499 1500 1502 1502 1501 1502 1503 1501 1494 1490 1487 1489 1489 1491 1495 1497 1495 1498 1495 1494 1490 1486 1484 1478 1473 1467 1461 1462 1461 1461 1456 1434 1435 1436 1437 1436 1435 1435 1434 1434 1433
1494 1493 1493 1493 1495 1496 1498 1499 1500 1501 1499 1495 1485 1483 1484 1484 1484 1485 1490 1490 1490 1493 1495 1492 1486 1480 1474 1465 1459 1459 1451 1456 1449 1443 1433 1432 1428 1429 1428 1430 1430 1429 1428 1427
1488 1488 1487 1487 1489 1490 1492 1494 1494 1497 1500 1489 1481 1478 1477 1479 1480 1480 1481 1486 1489 1490 1491 1489 1484 1478 1475 1467 1463 1444 1442 1435 1440 1426 1421 1422 1420 1423 1424 1425 1425 1425 1424 1422
1482 1482 1482 1482 1483 1484 1488 1489 1485 1488 1492 1493 1483 1474 1467 1467 1472 1476 1477 1479 1483 1486 1486 1482 1477 1475 1475 1461 1442 1421 1420 1421 1420 1413 1415 1415 1418 1417 1418 1420 1420 1418 1415 1414
1474 1477 1476 1476 1476 1476 1480 1480 1480 1481 1488 1490 1482 1470 1466 1466 1463 1472 1476 1478 1477 1480 1480 1475 1471 1470 1471 1454 1427 1411 1411 1411 1410 1410 1414 1410 1412 1411 1411 1411 1412 1411 1409 1407
1468 1469 1469 1470 1471 1470 1472 1474 1476 1478 1484 1484 1478 1466 1468 1465 1463 1466 1470 1475 1476 1473 1470 1467 1463 1463 1462 1437 1400 1402 1402 1403 1404 1401 1402 1400 1406 1406 1406 1407 1406 1405 1404 1403
1462 1462 1462 1461 1462 1464 1465 1469 1472 1473 1479 1473 1466 1458 1455 1461 1462 1462 1466 1467 1470 1468 1463 1458 1456 1445 1434 1393 1392 1394 1395 1395 1393 1393 1397 1398 1397 1398 1400 1401 1402 1401 1399 1398
1457 1457 1456 1452 1453 1457 1464 1465 1467 1468 1465 1461 1453 1451 1451 1455 1457 1460 1463 1464 1460 1456 1448 1450 1443 1419 1401 1383 1384 1388 1388 1388 1390 1390 1392 1391 1391 1393 1395 1396 1397 1397 1395 1392
1449 1448 1446 1447 1450 1454 1455 1454 1456 1455 1452 1443 1440 1443 1444 1449 1450 1451 1456 1454 1455 1449 1438 1440 1422 1407 1378 1367 1372 1372 1375 1380 1382 1383 1385 1387 1389 1390 1391 1391 1391 1392 1391 1389
1443 1445 1444 1447 1447 1445 1446 1442 1441 1439 1433 1431 1430 1430 1435 1442 1445 1443 1449 1446 1448 1438 1437 1436 1413 1384 1362 1364 1363 1364 1364 1365 1369 1375 1382 1386 1387 1389 1389 1388 1387 1387 1387 1386
1438 1435 1438 1439 1434 1432 1429 1421 1420 1420 1417 1417 1421 1426 1430 1437 1440 1440 1441 1438 1434 1433 1431 1413 1391 1362 1361 1361 1360 1360 1360 1359 1359 1364 1371 1380 1385 1385 1387 1387 1386 1384 1383 1382
1431 1429 1426 1422 1417 1410 1403 1401 1400 1406 1406 1410 1416 1421 1425 1429 1432 1432 1430 1425 1427 1421 1415 1393 1367 1361 1359 1357 1357 1358 1359 1356 1358 1360 1366 1374 1381 1383 1384 1383 1383 1381 1378 1377
1425 1419 1409 1404 1398 1393 1391 1397 1401 1401 1401 1407 1416 1419 1421 1422 1422 1422 1420 1423 1416 1403 1387 1370 1360 1360 1358 1355 1355 1357 1358 1359 1358 1362 1367 1370 1374 1377 1381 1381 1380 1377 1375 1372
1415 1408 1400 1396 1395 1390 1391 1393 1397 1400 1403 1407 1411 1414 1413 1409 1408 1411 1407 1405 1396 1378 1371 1361 1359 1359 1359 1357 1356 1356 1358 1359 1360 1363 1367 1370 1372 1373 1375 1376 1375 1372 1369 1367
1399 1392 1388 1388 1389 1387 1388 1390 1395 1398 1401 1402 1405 1401 1398 1398 1398 1397 1389 1381 1364 1358 1359 1359 1358 1359 1358 1355 1354 1356 1357 1357 1359 1361 1364 1367 1370 1371 1370 1367 1368 1366 1364 1362